Cairns, Australia

4:49 AM AEST on April 27, 2017 (GMT +1000)
Cairns International

Weather History for YBCS - April, 2014

Change the Weather History Date:

Saturday, April 12, 2014

  Actual Average Record
Temperature  
Mean Temperature 77 °F -  
Max Temperature 79 °F 83 °F 88 °F (2016)
Min Temperature 75 °F 70 °F 66 °F (2008)
Cooling Degree Days 12    
Growing Degree Days 27 (Base 50)    
Moisture  
Dew Point 75 °F    
Average Humidity 92    
Maximum Humidity 100    
Minimum Humidity 79    
Precipitation  
Precipitation 3.90 in 0.23 in - ()
Sea Level Pressure  
Sea Level Pressure 29.56 in    
Wind  
Wind Speed 20 mph ()    
Max Wind Speed 28 mph    
Max Gust Speed 39 mph    
Visibility 3.9 miles    
Events Rain    
Averages and records for this station are not official NWS values.
T = Trace of Precipitation, MM = Missing Value Source: Averaged Metar Reports

Daily Weather History Graph

Daily Weather History Graph

Search for Another Location

Airport or City:

Trip Planner

Search our weather history database for the weather conditions in past years. The results will help you decide how hot, cold, wet, or windy it might be!

Date:

Astronomy

Apr. 12, 2014 Rise Set
Actual Time 6:24 AM AEST 6:10 PM AEST
Civil Twilight 6:03 AM AEST 6:32 PM AEST
Nautical Twilight 5:37 AM AEST 6:57 PM AEST
Astronomical Twilight 5:12 AM AEST 7:22 PM AEST
Moon 4:02 PM AEST (4/12) 3:31 AM AEST (4/12)
Length of Visible Light 12h 29m
Length of Day
11h 45m
Waxing Gibbous, 89% of the Moon is Illuminated
Apr 12
Waxing Gibbous
Apr 15
Full
Apr 22
Last Quarter
Apr 29
New
May 7
First Quarter

Hourly Weather History & Observations

Time (AEST) Temp. Dew Point Humidity Pressure Visibility Wind Dir Wind Speed Gust Speed Precip Events Conditions
12:00 AM 78 °F 74 °F 85% 29.69 in 5 mi SE 19.6 mph - -   Overcast
12:01 AM 77.0 °F 73.4 °F 89% 29.68 in 3.7 mi SE 19.6 mph - N/A Rain Rain Showers
12:22 AM 78.8 °F 75.2 °F 89% 29.68 in 6.2 mi ESE 20.7 mph - N/A Rain Light Rain Showers
12:30 AM 78.8 °F 75.2 °F 89% 29.68 in 6.2 mi ESE 21.9 mph - N/A Rain Light Rain Showers
1:00 AM 78 °F 74 °F 85% 29.68 in - SE 17.3 mph - -  
1:00 AM 78.8 °F 75.2 °F 89% 29.65 in 6.2 mi SE 17.3 mph - N/A Rain Light Rain
1:25 AM 77.0 °F 73.4 °F 89% 29.65 in 3.7 mi SE 17.3 mph - N/A Rain Light Rain
1:30 AM 77.0 °F 73.4 °F 89% 29.62 in 3.1 mi SE 17.3 mph - N/A Rain Rain
2:00 AM 78.8 °F 73.4 °F 83% 29.62 in 6.2 mi ESE 20.7 mph - N/A Rain Light Rain Showers
2:07 AM 77.0 °F 75.2 °F 94% 29.62 in 3.7 mi ESE 18.4 mph - N/A Rain Light Rain Showers
2:14 AM 77.0 °F 75.2 °F 94% 29.62 in - ESE 18.4 mph - N/A Rain Heavy Rain Showers
2:25 AM 77.0 °F 73.4 °F 89% 29.62 in 6.2 mi SE 19.6 mph - N/A Rain Light Rain Showers
2:27 AM 78.8 °F 73.4 °F 83% 29.62 in 6.2 mi SE 19.6 mph - N/A Rain Light Rain Showers
2:29 AM 78.8 °F 73.4 °F 83% 29.62 in 6.2 mi SE 19.6 mph 32.2 mph N/A Rain Light Rain Showers
2:30 AM 78.8 °F 73.4 °F 83% 29.62 in 6.2 mi SE 20.7 mph 32.2 mph N/A Rain Light Rain Showers
3:00 AM 79 °F 74 °F 79% 29.60 in - SE 26.5 mph - -   Overcast
3:00 AM 78.8 °F 73.4 °F 83% 29.59 in 6.2 mi SE 26.5 mph 39.1 mph N/A Rain Light Rain Showers
3:06 AM 77.0 °F 75.2 °F 94% 29.59 in 3.1 mi SE 27.6 mph 39.1 mph N/A Rain Light Rain Showers
3:16 AM 77.0 °F 75.2 °F 94% 29.59 in 3.7 mi ESE 20.7 mph - N/A Rain Rain Showers
3:24 AM 77.0 °F 73.4 °F 89% 29.59 in 5.0 mi ESE 19.6 mph 32.2 mph N/A Rain Rain Showers
3:26 AM 77.0 °F 73.4 °F 89% 29.59 in 4.3 mi ESE 20.7 mph 32.2 mph N/A Rain Rain Showers
3:27 AM 77.0 °F 75.2 °F 94% 29.59 in 3.7 mi ESE 20.7 mph 32.2 mph N/A Rain Rain Showers
3:28 AM 77.0 °F 75.2 °F 94% 29.59 in 3.7 mi ESE 20.7 mph 32.2 mph N/A Rain Rain Showers
3:30 AM 77.0 °F 73.4 °F 89% 29.59 in 3.1 mi ESE 23.0 mph - N/A Rain Rain Showers
3:56 AM 77.0 °F 73.4 °F 89% 29.59 in 1.8 mi SE 20.7 mph 32.2 mph N/A Rain Heavy Rain Showers
4:00 AM 77 °F 74 °F 87% 29.61 in - SE 21.9 mph - -  
4:00 AM 77.0 °F 73.4 °F 89% 29.59 in - SE 21.9 mph - N/A Rain Heavy Rain
4:06 AM 77.0 °F 75.2 °F 94% 29.59 in 2.5 mi SE 24.2 mph 35.7 mph N/A Rain Heavy Rain
4:27 AM 77.0 °F 73.4 °F 89% 29.59 in 5.0 mi ESE 21.9 mph - N/A Rain Rain
4:30 AM 77.0 °F 73.4 °F 89% 29.59 in 4.3 mi ESE 20.7 mph - N/A Rain Rain
4:31 AM 77.0 °F 73.4 °F 89% 29.59 in 3.7 mi ESE 19.6 mph - N/A Rain Rain
4:33 AM 77.0 °F 73.4 °F 89% 29.59 in 3.7 mi ESE 19.6 mph - N/A Rain Rain
5:00 AM 77.0 °F 73.4 °F 89% 29.59 in 4.3 mi ESE 21.9 mph - N/A Rain Light Rain
5:04 AM 77.0 °F 75.2 °F 94% 29.59 in - ESE 21.9 mph - N/A Rain Rain
5:17 AM 77.0 °F 75.2 °F 94% 29.59 in 1.8 mi ESE 23.0 mph 35.7 mph N/A Rain Heavy Rain
5:30 AM 77.0 °F 75.2 °F 94% 29.59 in 1.3 mi SE 18.4 mph - N/A Rain Heavy Rain
6:00 AM 77 °F 75 °F 93% 29.62 in 6 mi East 24.2 mph - -   Overcast
6:00 AM 77.0 °F 75.2 °F 94% 29.62 in 5.6 mi East 24.2 mph - N/A Rain Light Rain
6:03 AM 77.0 °F 75.2 °F 94% 29.62 in 5.6 mi East 24.2 mph - N/A Rain Light Rain
6:26 AM 78.8 °F 75.2 °F 89% 29.62 in 3.7 mi East 19.6 mph - N/A Rain Light Rain Showers
6:27 AM 77.0 °F 75.2 °F 94% 29.62 in 3.7 mi East 19.6 mph 31.1 mph N/A Rain Light Rain Showers
6:30 AM 77.0 °F 75.2 °F 94% 29.62 in 3.7 mi East 21.9 mph 34.5 mph N/A Rain Light Rain Showers
7:00 AM 78 °F 75 °F 87% 29.65 in - East 21.9 mph - -  
7:00 AM 78.8 °F 75.2 °F 89% 29.62 in 6.2 mi East 21.9 mph - N/A Rain Light Rain Showers
7:03 AM 78.8 °F 75.2 °F 89% 29.62 in 5.0 mi East 23.0 mph - N/A Rain Light Rain Showers
7:04 AM 78.8 °F 75.2 °F 89% 29.62 in 5.0 mi East 23.0 mph 34.5 mph N/A Rain Light Rain Showers
7:07 AM 78.8 °F 75.2 °F 89% 29.62 in 3.7 mi East 23.0 mph 34.5 mph N/A Rain Light Rain Showers
7:30 AM 77.0 °F 75.2 °F 94% 29.62 in 4.3 mi ESE 21.9 mph - N/A Rain Light Rain Showers
7:33 AM 77.0 °F 75.2 °F 94% 29.62 in 3.7 mi ESE 23.0 mph 34.5 mph N/A Rain Light Rain Showers
8:00 AM 77.0 °F 75.2 °F 94% 29.65 in - East 21.9 mph 36.8 mph N/A Rain Light Rain Showers
8:14 AM 78.8 °F 75.2 °F 89% 29.65 in 5.0 mi East 20.7 mph - N/A Rain Light Rain Showers
8:16 AM 77.0 °F 75.2 °F 94% 29.65 in 3.7 mi East 21.9 mph - N/A Rain Light Rain Showers
8:27 AM 78.8 °F 75.2 °F 89% 29.65 in 3.7 mi East 20.7 mph 32.2 mph N/A Rain Light Rain Showers
8:30 AM 78.8 °F 75.2 °F 89% 29.65 in 3.7 mi East 23.0 mph 38.0 mph N/A Rain Light Rain Showers
9:00 AM 78 °F 75 °F 88% 29.66 in 4 mi East 21.9 mph - -   Overcast
9:00 AM 78.8 °F 75.2 °F 89% 29.65 in 3.7 mi East 21.9 mph - N/A Rain Rain
9:30 AM 77.0 °F 75.2 °F 94% 29.65 in - East 23.0 mph 34.5 mph N/A Rain Heavy Rain
10:00 AM 78 °F 76 °F 91% 29.66 in - ESE 23.0 mph - -  
10:00 AM 78.8 °F 75.2 °F 89% 29.65 in 3.1 mi ESE 23.0 mph - N/A Rain Rain
10:04 AM 78.8 °F 75.2 °F 89% 29.65 in 3.1 mi ESE 21.9 mph 33.4 mph N/A Rain Rain
10:30 AM 77.0 °F 75.2 °F 94% 29.65 in - ESE 25.3 mph 36.8 mph N/A Rain Heavy Rain
11:00 AM 77.0 °F 75.2 °F 94% 29.62 in - ESE 21.9 mph - N/A Rain Heavy Rain
11:04 AM 77.0 °F 75.2 °F 94% 29.62 in 2.2 mi ESE 23.0 mph 34.5 mph N/A Rain Heavy Rain
11:30 AM 77.0 °F 75.2 °F 94% 29.59 in 1.3 mi ESE 24.2 mph - N/A Rain Heavy Rain
11:35 AM 77.0 °F 75.2 °F 94% 29.59 in - East 23.0 mph - N/A Rain Heavy Rain
11:58 AM 77.0 °F 77.0 °F 100% 29.59 in 1.3 mi East 17.3 mph 31.1 mph N/A Rain Heavy Rain
12:00 PM 77 °F 76 °F 98% 29.60 in 1 mi East 18.4 mph - -   Overcast
12:00 PM 77.0 °F 77.0 °F 100% 29.59 in 1.3 mi East 18.4 mph 31.1 mph N/A Rain Heavy Rain
12:30 PM 77.0 °F 77.0 °F 100% 29.56 in 1.1 mi ENE 13.8 mph - N/A   Overcast
1:00 PM 79 °F 77 °F 92% 29.55 in - East 19.6 mph - -  
1:00 PM 78.8 °F 77.0 °F 94% 29.53 in 3.7 mi East 19.6 mph - N/A Rain Light Rain Showers
1:06 PM 78.8 °F 77.0 °F 94% 29.53 in - East 19.6 mph 33.4 mph N/A Rain Light Rain Showers
1:24 PM 78.8 °F 77.0 °F 94% 29.50 in 6.2 mi East 9.2 mph - N/A Rain Light Rain Showers
1:28 PM 78.8 °F 77.0 °F 94% 29.50 in 6.2 mi East 10.4 mph - N/A Rain Light Rain Showers
1:30 PM 78.8 °F 77.0 °F 94% 29.50 in 6.2 mi East 12.7 mph - N/A Rain Light Rain Showers
1:34 PM 78.8 °F 77.0 °F 94% 29.50 in 3.7 mi ENE 16.1 mph - N/A Rain Light Rain Showers
1:51 PM 78.8 °F 77.0 °F 94% 29.50 in - East 18.4 mph 32.2 mph N/A Rain Rain Showers
1:53 PM 77.0 °F 77.0 °F 100% 29.53 in 1.7 mi NE 26.5 mph - N/A Rain Rain Showers
1:54 PM 77.0 °F 75.2 °F 94% 29.50 in 1.7 mi NE 24.2 mph 36.8 mph N/A Rain Rain Showers
2:00 PM 77.0 °F 75.2 °F 94% 29.50 in 1.1 mi NE 21.9 mph 36.8 mph N/A Rain Heavy Rain Showers
2:27 PM 77.0 °F 75.2 °F 94% 29.47 in - ENE 27.6 mph - N/A   Heavy Drizzle
2:30 PM 77.0 °F 75.2 °F 94% 29.47 in - ENE 24.2 mph - N/A Rain Rain
2:32 PM 77.0 °F 77.0 °F 100% 29.47 in 1.7 mi ENE 23.0 mph 34.5 mph N/A Rain Heavy Rain
3:00 PM 77 °F 75 °F 92% 29.48 in 2 mi NE 19.6 mph - -   Overcast
3:00 PM 77.0 °F 75.2 °F 94% 29.47 in - NE 19.6 mph 31.1 mph N/A Rain Light Rain Showers
3:30 PM 77.0 °F 75.2 °F 94% 29.44 in 2.5 mi NNE 19.6 mph - N/A Rain Rain Showers
3:35 PM 77.0 °F 75.2 °F 94% 29.44 in - NNE 20.7 mph 32.2 mph N/A Rain Light Rain Showers
4:00 PM 77 °F 75 °F 92% 29.46 in - NNE 19.6 mph - -  
4:00 PM 77.0 °F 75.2 °F 94% 29.44 in - NNE 19.6 mph 31.1 mph N/A Rain Light Rain Showers
4:30 PM 77.0 °F 75.2 °F 94% 29.44 in 2.5 mi NNE 19.6 mph 31.1 mph N/A Rain Rain
5:00 PM 77.0 °F 75.2 °F 94% 29.42 in 3.7 mi North 20.7 mph 32.2 mph N/A   Drizzle
5:30 PM 77.0 °F 75.2 °F 94% 29.44 in - North 20.7 mph - N/A Rain Light Rain
5:34 PM 77.0 °F 75.2 °F 94% 29.44 in 3.1 mi North 23.0 mph 35.7 mph N/A Rain Light Rain
6:00 PM 77 °F 76 °F 94% 29.46 in 3 mi North 21.9 mph - -   Overcast
6:00 PM 77.0 °F 75.2 °F 94% 29.44 in 3.1 mi North 21.9 mph - N/A Rain Light Rain
6:16 PM 77.0 °F 75.2 °F 94% 29.44 in - North 20.7 mph 32.2 mph N/A Rain Light Rain
6:30 PM 77.0 °F 75.2 °F 94% 29.44 in 3.7 mi North 23.0 mph - N/A Rain Light Rain
6:59 PM 78.8 °F 75.2 °F 89% 29.47 in 5.6 mi North 19.6 mph - N/A Rain Light Rain
7:00 PM 78 °F 76 °F 91% 29.48 in - North 18.4 mph - -  
7:00 PM 78.8 °F 75.2 °F 89% 29.47 in 5.6 mi North 18.4 mph - N/A Rain Light Rain
7:13 PM 78.8 °F 75.2 °F 89% 29.47 in 5.0 mi North 20.7 mph - N/A   Drizzle
7:29 PM 77.0 °F 75.2 °F 94% 29.47 in 3.7 mi North 23.0 mph - N/A Rain Light Rain
7:30 PM 77.0 °F 75.2 °F 94% 29.47 in 3.1 mi North 23.0 mph - N/A Rain Rain
8:00 PM 77.0 °F 75.2 °F 94% 29.47 in - North 24.2 mph - N/A Rain Rain
8:21 PM 77.0 °F 75.2 °F 94% 29.50 in 1.8 mi North 21.9 mph 33.4 mph N/A Rain Rain
8:30 PM 77.0 °F 75.2 °F 94% 29.47 in 1.6 mi North 25.3 mph - N/A Rain Rain
9:00 PM 76 °F 75 °F 97% 29.50 in 2 mi NNW 24.2 mph - -   Overcast
9:00 PM 77.0 °F 75.2 °F 94% 29.50 in 1.8 mi NNW 24.2 mph 36.8 mph N/A Rain Rain
9:30 PM 77.0 °F 75.2 °F 94% 29.50 in 5.6 mi North 24.2 mph - N/A Rain Light Rain
9:33 PM 77.0 °F 75.2 °F 94% 29.50 in 5.0 mi NNW 24.2 mph - N/A Rain Light Rain
9:35 PM 77.0 °F 75.2 °F 94% 29.50 in 4.3 mi NNW 21.9 mph - N/A Rain Light Rain
9:54 PM 77.0 °F 75.2 °F 94% 29.50 in - NNW 20.7 mph - N/A Rain Rain
10:00 PM 76 °F 75 °F 95% 29.52 in - NNW 21.9 mph - -  
10:00 PM 77.0 °F 75.2 °F 94% 29.50 in 3.1 mi NNW 21.9 mph - N/A Rain Rain
10:22 PM 75.2 °F 75.2 °F 100% 29.50 in 4.3 mi NNW 20.7 mph - N/A Rain Light Rain
10:23 PM 75.2 °F 75.2 °F 100% 29.50 in 3.7 mi NNW 19.6 mph - N/A Rain Light Rain
10:29 PM 77.0 °F 75.2 °F 94% 29.50 in 4.3 mi NNW 20.7 mph 32.2 mph N/A Rain Light Rain
10:30 PM 77.0 °F 75.2 °F 94% 29.50 in 4.3 mi NNW 20.7 mph 32.2 mph N/A Rain Light Rain
11:00 PM 77.0 °F 73.4 °F 89% 29.50 in 6.2 mi North 19.6 mph - N/A Rain Light Rain Showers
11:12 PM 75.2 °F 73.4 °F 94% 29.53 in 3.7 mi NNW 13.8 mph - N/A Rain Light Rain Showers
11:30 PM 75.2 °F 73.4 °F 94% 29.53 in 4.3 mi NNW 10.4 mph - N/A Rain Rain Showers